Capo Bellavista, Italy

3:58 AM CEST on March 30, 2017 (GMT +0200)
Capo Bellavista

Weather History for LIEB - October, 2013

Change the Weather History Date:

Tuesday, October 1, 2013

  Actual Average Record
Temperature  
Mean Temperature 76 °F -  
Max Temperature 84 °F 71 °F - ()
Min Temperature 68 °F 60 °F - ()
Cooling Degree Days 11    
Growing Degree Days 26 (Base 50)    
Moisture  
Dew Point 63 °F    
Average Humidity 63    
Maximum Humidity 83    
Minimum Humidity 48    
Precipitation  
Precipitation 0.00 in 0.09 in - ()
Sea Level Pressure  
Sea Level Pressure 29.75 in    
Wind  
Wind Speed 6 mph ()    
Max Wind Speed 17 mph    
Max Gust Speed 30 mph    
Visibility 9.1 miles    
Events      
T = Trace of Precipitation, MM = Missing Value Source: Averaged Metar Reports

Daily Weather History Graph

Daily Weather History Graph

Search for Another Location

Airport or City:

Trip Planner

Search our weather history database for the weather conditions in past years. The results will help you decide how hot, cold, wet, or windy it might be!

Date:

Astronomy

Oct. 01, 2013 Rise Set
Actual Time 7:17 AM CEST 7:03 PM CEST
Civil Twilight 6:50 AM CEST 7:30 PM CEST
Nautical Twilight 6:19 AM CEST 8:01 PM CEST
Astronomical Twilight 5:47 AM CEST 8:33 PM CEST
Moon 3:35 AM CEST (10/1) 4:58 PM CEST (10/1)
Length of Visible Light 12h 40m
Length of Day
11h 46m
Waning Crescent, 14% of the Moon is Illuminated
Oct 1
Waning Crescent
Oct 5
New
Oct 12
First Quarter
Oct 19
Full
Oct 27
Last Quarter

Hourly Weather History & Observations

Time (CEST) Temp. Heat Index Dew Point Humidity Pressure Visibility Wind Dir Wind Speed Gust Speed Precip Events Conditions
12:55 AM 71.6 °F - 57.2 °F 60% 29.74 in 6.2 mi WSW 4.6 mph - N/A   Partly Cloudy
1:55 AM 71.6 °F - 60.8 °F 69% 29.74 in 6.2 mi SW 6.9 mph - N/A   Partly Cloudy
2:00 AM 72 °F - 60 °F 57% 29.73 in 12 mi SW 6.9 mph - -   Scattered Clouds
2:55 AM 71.6 °F - 60.8 °F 69% 29.74 in 6.2 mi South 4.6 mph - N/A   Partly Cloudy
3:55 AM 71.6 °F - 59.0 °F 64% 29.74 in 6.2 mi SW 2.3 mph - N/A   Partly Cloudy
4:55 AM 69.8 °F - 60.8 °F 73% 29.71 in - WNW 9.2 mph - N/A   Clear
5:55 AM 68.0 °F - 59.0 °F 73% 29.71 in - WNW 11.5 mph - N/A   Clear
6:55 AM 71.6 °F - 59.0 °F 64% 29.71 in - North 4.6 mph - N/A   Clear
7:55 AM 71.6 °F - 60.8 °F 69% 29.71 in - WNW 6.9 mph - N/A   Clear
8:00 AM 71 °F - 60 °F 60% 29.72 in 12 mi WNW 6.9 mph - -  
8:55 AM 73.4 °F - 59.0 °F 61% 29.74 in - North 3.5 mph - N/A   Clear
9:55 AM 75.2 °F - 59.0 °F 57% 29.74 in - SW 2.3 mph - N/A   Clear
10:55 AM 77.0 °F - 60.8 °F 57% 29.77 in - South 6.9 mph - N/A   Clear
11:55 AM 78.8 °F - 64.4 °F 61% 29.77 in - South 5.8 mph - N/A   Clear
12:55 PM 84.2 °F 87.3 °F 68.0 °F 58% 29.77 in - SE 6.9 mph - N/A   Clear
1:55 PM 84.2 °F 87.3 °F 68.0 °F 58% 29.77 in - SE 6.9 mph - N/A   Clear
2:00 PM 84 °F - 69 °F 51% 29.75 in 12 mi SE 6.9 mph - -   Scattered Clouds
2:55 PM 82.4 °F 86.3 °F 69.8 °F 66% 29.77 in - SE 5.8 mph - N/A   Clear
3:55 PM 80.6 °F 83.9 °F 69.8 °F 70% 29.77 in - South 4.6 mph - N/A   Clear
4:55 PM 84.2 °F 85.0 °F 62.6 °F 48% 29.74 in - WNW 9.2 mph - N/A   Clear
5:55 PM 80.6 °F 81.5 °F 60.8 °F 51% 29.74 in - NW 17.3 mph 29.9 mph N/A   Clear
6:55 PM 78.8 °F - 60.8 °F 54% 29.74 in - NW 16.1 mph - N/A   Clear
7:55 PM 77.0 °F - 60.8 °F 57% 29.77 in - NW 11.5 mph - N/A   Clear
8:00 PM 77 °F - 61 °F 48% 29.78 in 12 mi NW 11.5 mph - -   Partly Cloudy
8:55 PM 77.0 °F - 60.8 °F 57% 29.80 in - WNW 9.2 mph - N/A   Clear
9:55 PM 73.4 °F - 68.0 °F 83% 29.80 in - ESE 3.5 mph - N/A   Clear
10:55 PM 73.4 °F - 68.0 °F 83% 29.83 in - SE 3.5 mph - N/A   Clear
11:55 PM 73.4 °F - 68.0 °F 83% 29.83 in - ESE 2.3 mph - N/A   Clear